カタログに戻る

STARLINK-37446

運用中通信SSO
NORAD 68808·PAYLOAD·🇺🇸 United States

打ち上げ Apr 23, 2026 から Vandenberg Space Force Base

Loading…

次のパス (今後24時間)

TLE

最新Source: CelesTrak SupGP

元期: Sep 15, 2026, 03:28 UTC

1 68808C 26089G   26258.14493056 -.00039385  00000+0 -12222-2 0  2588
2 68808  97.2850 103.9388 0001748  91.4643 337.5772 15.33467909    14

AllMySatでSTARLINK-37446をリアルタイム追跡

Download on the App Store